| time (UTC) | temp F | wind direction | speed MPH | gust MPH | rain 1hr in | rain 24hr in | rain mn in | humidity % | barometer mb |
| 20260903121619 | 78 | 0.0 | 0.0 | 0.00 | 0.00 | 0.00 | 48 | 996.0 | |
| 20260903121118 | 78 | 0.0 | 1.0 | 0.00 | 0.00 | 0.00 | 48 | 995.9 | |
| 20260903120637 | 78 | 180 | 1.0 | 2.0 | 0.00 | 0.00 | 0.00 | 48 | 995.9 |
| 20260903120138 | 77 | 0.0 | 1.0 | 0.00 | 0.00 | 0.00 | 48 | 995.9 | |
| 20260903115638 | 77 | 0.0 | 2.0 | 0.00 | 0.00 | 0.00 | 48 | 995.9 | |
| 20260903115118 | 77 | 0 | 1.0 | 2.0 | 0.00 | 0.00 | 0.00 | 48 | 995.9 |
| 20260903114637 | 77 | 180 | 2.0 | 4.0 | 0.00 | 0.00 | 0.00 | 48 | 995.9 |
| 20260903114117 | 77 | 180 | 1.0 | 4.0 | 0.00 | 0.00 | 0.00 | 49 | 995.8 |
| 20260903113617 | 77 | 158 | 2.0 | 3.0 | 0.00 | 0.00 | 0.00 | 49 | 995.8 |
| 20260903113138 | 77 | 0.0 | 1.0 | 0.00 | 0.00 | 0.00 | 49 | 995.8 | |
| 20260903112617 | 77 | 0.0 | 0.0 | 0.00 | 0.00 | 0.00 | 49 | 995.7 | |
| 20260903112118 | 77 | 0.0 | 0.0 | 0.00 | 0.00 | 0.00 | 49 | 995.7 | |
| 20260903111637 | 77 | 0.0 | 1.0 | 0.00 | 0.00 | 0.00 | 49 | 995.7 | |
| 20260903111117 | 77 | 0.0 | 0.0 | 0.00 | 0.00 | 0.00 | 49 | 995.7 | |
| 20260903110618 | 77 | 0.0 | 0.0 | 0.00 | 0.00 | 0.00 | 49 | 995.7 | |
| 20260903110118 | 77 | 158 | 1.0 | 2.0 | 0.00 | 0.00 | 0.00 | 49 | 995.7 |
| 20260903105639 | 77 | 158 | 1.0 | 3.0 | 0.00 | 0.00 | 0.00 | 49 | 995.6 |
| 20260903105117 | 77 | 0.0 | 0.0 | 0.00 | 0.00 | 0.00 | 49 | 995.5 | |
| 20260903104617 | 77 | 0.0 | 0.0 | 0.00 | 0.00 | 0.00 | 49 | 995.6 | |
| 20260903104117 | 77 | 135 | 2.0 | 4.0 | 0.00 | 0.00 | 0.00 | 49 | 995.6 |
| 20260903103617 | 78 | 0 | 7.0 | 8.0 | 0.00 | 0.00 | 0.00 | 49 | 995.7 |
| 20260903103118 | 77 | 68 | 3.0 | 5.0 | 0.00 | 0.00 | 0.00 | 49 | 995.7 |
| 20260903102617 | 77 | 0.0 | 0.0 | 0.00 | 0.00 | 0.00 | 49 | 995.5 | |
| 20260903102119 | 77 | 0.0 | 0.0 | 0.00 | 0.00 | 0.00 | 49 | 995.3 | |
| 20260903101620 | 77 | 0.0 | 0.0 | 0.00 | 0.00 | 0.00 | 49 | 995.2 | |
| 20260903101138 | 77 | 0.0 | 0.0 | 0.00 | 0.00 | 0.00 | 49 | 995.2 | |
| 20260903100619 | 77 | 0.0 | 0.0 | 0.00 | 0.00 | 0.00 | 50 | 995.2 | |
| 20260903100119 | 77 | 0.0 | 0.0 | 0.00 | 0.00 | 0.00 | 50 | 995.1 | |
| 20260903095619 | 77 | 0.0 | 0.0 | 0.00 | 0.00 | 0.00 | 50 | 995.1 | |
| 20260903095140 | 77 | 0.0 | 0.0 | 0.00 | 0.00 | 0.00 | 50 | 995.1 | |
| 20260903094620 | 77 | 0.0 | 0.0 | 0.00 | 0.00 | 0.00 | 50 | 995.1 | |
| 20260903094140 | 77 | 0.0 | 0.0 | 0.00 | 0.00 | 0.00 | 50 | 995.0 | |
| 20260903093637 | 77 | 0.0 | 0.0 | 0.00 | 0.00 | 0.00 | 51 | 995.0 | |
| 20260903093120 | 77 | 0.0 | 0.0 | 0.00 | 0.00 | 0.00 | 51 | 995.0 | |
| 20260903092640 | 77 | 0.0 | 0.0 | 0.00 | 0.00 | 0.00 | 51 | 994.9 | |
| 20260903092120 | 77 | 0.0 | 0.0 | 0.00 | 0.00 | 0.00 | 51 | 994.9 | |
| 20260903091640 | 77 | 0.0 | 0.0 | 0.00 | 0.00 | 0.00 | 51 | 994.9 | |
| 20260903091201 | 77 | 0.0 | 1.0 | 0.00 | 0.00 | 0.00 | 52 | 994.9 | |
| 20260903090618 | 77 | 0.0 | 1.0 | 0.00 | 0.00 | 0.00 | 52 | 995.0 | |
| 20260903090117 | 77 | 0 | 1.0 | 2.0 | 0.00 | 0.00 | 0.00 | 53 | 994.9 |
| 20260903085619 | 77 | 0 | 1.0 | 2.0 | 0.00 | 0.00 | 0.00 | 53 | 994.9 |
| 20260903085119 | 77 | 0 | 2.0 | 3.0 | 0.00 | 0.00 | 0.00 | 53 | 994.9 |
| 20260903084620 | 77 | 0 | 3.0 | 4.0 | 0.00 | 0.00 | 0.00 | 53 | 994.7 |
| 20260903084119 | 77 | 0 | 3.0 | 4.0 | 0.00 | 0.00 | 0.00 | 53 | 994.7 |
| 20260903083618 | 77 | 0 | 4.0 | 5.0 | 0.00 | 0.00 | 0.00 | 53 | 994.7 |
| 20260903083137 | 77 | 0 | 3.0 | 5.0 | 0.00 | 0.00 | 0.00 | 53 | 994.6 |
| 20260903082620 | 77 | 0 | 3.0 | 5.0 | 0.00 | 0.00 | 0.00 | 53 | 994.6 |
| 20260903082117 | 77 | 0 | 3.0 | 4.0 | 0.00 | 0.00 | 0.00 | 54 | 994.6 |
| 20260903081617 | 76 | 0 | 3.0 | 4.0 | 0.00 | 0.00 | 0.00 | 54 | 994.6 |
| 20260903081117 | 76 | 0 | 2.0 | 3.0 | 0.00 | 0.00 | 0.00 | 55 | 994.7 |
| 20260903080640 | 76 | 0 | 2.0 | 4.0 | 0.00 | 0.00 | 0.00 | 55 | 994.7 |
| 20260903080117 | 76 | 0.0 | 0.0 | 0.00 | 0.00 | 0.00 | 55 | 994.8 | |
| 20260903075617 | 76 | 0 | 2.0 | 4.0 | 0.00 | 0.00 | 0.00 | 55 | 994.7 |
| 20260903075121 | 76 | 0 | 1.0 | 2.0 | 0.00 | 0.00 | 0.00 | 55 | 994.8 |
| 20260903074619 | 76 | 0 | 2.0 | 5.0 | 0.00 | 0.00 | 0.00 | 55 | 994.9 |
| 20260903074140 | 76 | 0 | 2.0 | 3.0 | 0.00 | 0.00 | 0.00 | 56 | 995.0 |
| 20260903073621 | 76 | 0 | 2.0 | 3.0 | 0.00 | 0.00 | 0.00 | 56 | 995.1 |
| 20260903073117 | 76 | 0 | 1.0 | 2.0 | 0.00 | 0.00 | 0.00 | 56 | 995.1 |
| 20260903072619 | 76 | 0 | 2.0 | 3.0 | 0.00 | 0.00 | 0.00 | 55 | 995.1 |
| 20260903072120 | 76 | 0 | 2.0 | 3.0 | 0.00 | 0.00 | 0.00 | 55 | 995.1 |
| 20260903071619 | 77 | 0 | 3.0 | 5.0 | 0.00 | 0.00 | 0.00 | 55 | 995.0 |
| 20260903071120 | 77 | 0 | 1.0 | 3.0 | 0.00 | 0.00 | 0.00 | 55 | 994.9 |
| 20260903070619 | 77 | 0 | 3.0 | 5.0 | 0.00 | 0.00 | 0.00 | 55 | 994.8 |
| 20260903070116 | 77 | 0 | 1.0 | 2.0 | 0.00 | 0.00 | 0.00 | 55 | 994.8 |
| 20260903065619 | 77 | 0 | 1.0 | 3.0 | 0.00 | 0.00 | 0.00 | 55 | 994.8 |
| 20260903065118 | 77 | 0.0 | 0.0 | 0.00 | 0.00 | 0.00 | 55 | 994.8 | |
| 20260903064619 | 77 | 0.0 | 0.0 | 0.00 | 0.00 | 0.00 | 55 | 994.9 | |
| 20260903064116 | 77 | 0.0 | 0.0 | 0.00 | 0.00 | 0.00 | 55 | 995.1 | |
| 20260903063616 | 77 | 0.0 | 0.0 | 0.00 | 0.00 | 0.00 | 55 | 995.2 | |
| 20260903063118 | 77 | 0.0 | 0.0 | 0.00 | 0.00 | 0.00 | 55 | 995.3 | |
| 20260903062620 | 77 | 0.0 | 0.0 | 0.00 | 0.00 | 0.00 | 55 | 995.3 | |
| 20260903062116 | 77 | 0 | 1.0 | 2.0 | 0.00 | 0.00 | 0.00 | 55 | 995.3 |
| 20260903061616 | 77 | 0 | 3.0 | 4.0 | 0.00 | 0.00 | 0.00 | 55 | 995.5 |
| 20260903061117 | 77 | 0 | 3.0 | 5.0 | 0.00 | 0.00 | 0.00 | 54 | 995.5 |
| 20260903060620 | 77 | 0 | 3.0 | 5.0 | 0.00 | 0.00 | 0.00 | 54 | 995.5 |
| 20260903060119 | 77 | 0 | 4.0 | 5.0 | 0.00 | 0.00 | 0.00 | 54 | 995.6 |
| 20260903055619 | 77 | 0 | 6.0 | 9.0 | 0.00 | 0.00 | 0.00 | 55 | 995.7 |
| 20260903055117 | 78 | 0 | 5.0 | 8.0 | 0.00 | 0.00 | 0.00 | 54 | 995.7 |
| 20260903054617 | 78 | 0 | 6.0 | 10.0 | 0.00 | 0.00 | 0.00 | 54 | 995.8 |
| 20260903054116 | 78 | 0 | 7.0 | 11.0 | 0.00 | 0.00 | 0.00 | 54 | 995.7 |
| 20260903053616 | 79 | 0 | 10.0 | 13.0 | 0.00 | 0.00 | 0.00 | 54 | 995.8 |
| 20260903053117 | 80 | 0 | 13.0 | 22.0 | 0.00 | 0.00 | 0.00 | 53 | 995.7 |
| 20260903052657 | 81 | 0 | 5.0 | 11.0 | 0.00 | 0.00 | 0.00 | 56 | 995.4 |
| 20260903052116 | 81 | 0 | 12.0 | 14.0 | 0.00 | 0.00 | 0.00 | 56 | 995.6 |
| 20260903051617 | 82 | 293 | 1.0 | 4.0 | 0.00 | 0.00 | 0.00 | 56 | 994.8 |
| 20260903051116 | 82 | 0 | 3.0 | 4.0 | 0.00 | 0.00 | 0.00 | 55 | 994.6 |
| 20260903050616 | 82 | 225 | 2.0 | 4.0 | 0.00 | 0.00 | 0.00 | 56 | 994.5 |
| 20260903050117 | 82 | 225 | 2.0 | 3.0 | 0.00 | 0.00 | 0.00 | 55 | 994.4 |
| 20260903045636 | 82 | 0 | 4.0 | 5.0 | 0.00 | 0.00 | 0.00 | 55 | 994.3 |
| 20260903045116 | 82 | 0 | 5.0 | 6.0 | 0.00 | 0.00 | 0.00 | 55 | 994.3 |
| 20260903044617 | 82 | 225 | 4.0 | 6.0 | 0.00 | 0.00 | 0.00 | 55 | 994.3 |
| 20260903044138 | 82 | 248 | 5.0 | 7.0 | 0.00 | 0.00 | 0.00 | 55 | 994.3 |
| 20260903043619 | 82 | 225 | 5.0 | 6.0 | 0.00 | 0.00 | 0.00 | 55 | 994.2 |
| 20260903043119 | 82 | 225 | 4.0 | 5.0 | 0.00 | 0.00 | 0.00 | 55 | 994.2 |
| 20260903042616 | 83 | 0 | 5.0 | 6.0 | 0.00 | 0.00 | 0.00 | 55 | 994.1 |
| 20260903042137 | 83 | 225 | 4.0 | 4.0 | 0.00 | 0.00 | 0.00 | 55 | 994.1 |
| 20260903041619 | 83 | 225 | 4.0 | 5.0 | 0.00 | 0.00 | 0.00 | 55 | 994.0 |
| 20260903041121 | 83 | 0 | 3.0 | 4.0 | 0.00 | 0.00 | 0.00 | 55 | 994.0 |
| 20260903040621 | 83 | 225 | 3.0 | 3.0 | 0.00 | 0.00 | 0.00 | 55 | 993.9 |
| 20260903040118 | 83 | 0.0 | 0.0 | 0.00 | 0.00 | 0.00 | 55 | 993.9 | |
| 20260903035619 | 83 | 225 | 1.0 | 3.0 | 0.00 | 0.00 | 0.00 | 55 | 993.9 |
| 20260903035117 | 82 | 225 | 2.0 | 4.0 | 0.00 | 0.00 | 0.00 | 55 | 993.8 |
| 20260903034618 | 82 | 225 | 5.0 | 8.0 | 0.00 | 0.00 | 0.00 | 55 | 993.7 |
| 20260903034119 | 82 | 225 | 6.0 | 8.0 | 0.00 | 0.00 | 0.00 | 55 | 993.7 |
| 20260903033618 | 82 | 225 | 8.0 | 12.0 | 0.00 | 0.00 | 0.00 | 55 | 993.6 |
| 20260903033120 | 82 | 225 | 12.0 | 14.0 | 0.00 | 0.00 | 0.00 | 55 | 993.4 |
| 20260903032616 | 82 | 225 | 12.0 | 15.0 | 0.00 | 0.00 | 0.00 | 55 | 993.1 |
| 20260903032119 | 82 | 225 | 12.0 | 15.0 | 0.00 | 0.00 | 0.00 | 55 | 993.1 |
| 20260903031619 | 82 | 0 | 10.0 | 12.0 | 0.00 | 0.00 | 0.00 | 55 | 993.1 |
| 20260903031120 | 82 | 0 | 11.0 | 14.0 | 0.00 | 0.00 | 0.00 | 55 | 993.0 |
| 20260903030619 | 82 | 0 | 11.0 | 15.0 | 0.00 | 0.00 | 0.00 | 55 | 993.1 |
| 20260903030119 | 83 | 0 | 11.0 | 13.0 | 0.00 | 0.00 | 0.00 | 55 | 993.2 |
| 20260903025636 | 83 | 0 | 12.0 | 14.0 | 0.00 | 0.00 | 0.00 | 55 | 993.4 |
| 20260903024620 | 83 | 0 | 11.0 | 14.0 | 0.00 | 0.00 | 0.00 | 55 | 993.6 |
| 20260903024121 | 83 | 0 | 12.0 | 14.0 | 0.00 | 0.00 | 0.00 | 55 | 993.7 |
| 20260903023616 | 83 | 0 | 11.0 | 14.0 | 0.00 | 0.00 | 0.00 | 55 | 993.7 |
| 20260903023220 | 83 | 0 | 10.0 | 13.0 | 0.00 | 0.00 | 0.00 | 55 | 993.7 |
| 20260903022616 | 83 | 0 | 9.0 | 11.0 | 0.00 | 0.00 | 0.00 | 55 | 993.8 |
| 20260903022119 | 83 | 0 | 7.0 | 11.0 | 0.00 | 0.00 | 0.00 | 55 | 993.8 |
| 20260903021618 | 83 | 203 | 9.0 | 13.0 | 0.00 | 0.00 | 0.00 | 55 | 993.8 |
| 20260903021116 | 84 | 0 | 7.0 | 10.0 | 0.00 | 0.00 | 0.00 | 55 | 993.9 |
| 20260903020616 | 84 | 0 | 10.0 | 14.0 | 0.00 | 0.00 | 0.00 | 55 | 993.9 |
| 20260903020118 | 84 | 203 | 8.0 | 10.0 | 0.00 | 0.00 | 0.00 | 54 | 994.0 |
| 20260903015638 | 84 | 0 | 7.0 | 11.0 | 0.00 | 0.00 | 0.00 | 54 | 994.0 |
| 20260903015121 | 84 | 0 | 6.0 | 11.0 | 0.00 | 0.00 | 0.00 | 54 | 994.0 |
| 20260903014620 | 84 | 0 | 5.0 | 8.0 | 0.00 | 0.00 | 0.00 | 54 | 994.1 |
| 20260903014121 | 84 | 0 | 7.0 | 9.0 | 0.00 | 0.00 | 0.00 | 54 | 994.1 |
| 20260903013701 | 84 | 0 | 7.0 | 10.0 | 0.00 | 0.00 | 0.00 | 54 | 994.1 |
| 20260903013121 | 84 | 0 | 6.0 | 12.0 | 0.00 | 0.00 | 0.00 | 54 | 994.1 |
| 20260903012620 | 84 | 0 | 5.0 | 9.0 | 0.00 | 0.00 | 0.00 | 54 | 994.0 |
| 20260903012120 | 85 | 0 | 7.0 | 9.0 | 0.00 | 0.00 | 0.00 | 54 | 994.1 |
| 20260903011621 | 85 | 0 | 6.0 | 8.0 | 0.00 | 0.00 | 0.00 | 54 | 994.1 |
| 20260903011120 | 85 | 203 | 5.0 | 6.0 | 0.00 | 0.00 | 0.00 | 53 | 994.1 |
| 20260903010618 | 85 | 0 | 4.0 | 6.0 | 0.00 | 0.00 | 0.00 | 53 | 994.0 |
| 20260903010121 | 85 | 0 | 4.0 | 7.0 | 0.00 | 0.00 | 0.00 | 53 | 993.9 |
| 20260903005618 | 85 | 0 | 4.0 | 5.0 | 0.00 | 0.00 | 0.00 | 53 | 993.9 |
| 20260903005120 | 85 | 0 | 3.0 | 4.0 | 0.00 | 0.00 | 0.00 | 53 | 993.9 |
| 20260903004619 | 85 | 0 | 5.0 | 8.0 | 0.00 | 0.00 | 0.00 | 53 | 994.0 |
| 20260903004120 | 86 | 0 | 7.0 | 9.0 | 0.00 | 0.00 | 0.00 | 52 | 994.0 |
| 20260903003620 | 86 | 0 | 5.0 | 6.0 | 0.00 | 0.00 | 0.00 | 52 | 993.9 |
| 20260903003118 | 86 | 225 | 5.0 | 5.0 | 0.00 | 0.00 | 0.00 | 52 | 993.8 |
| 20260903002619 | 87 | 225 | 5.0 | 6.0 | 0.00 | 0.00 | 0.00 | 51 | 993.9 |
| 20260903002118 | 87 | 225 | 5.0 | 6.0 | 0.00 | 0.00 | 0.00 | 50 | 993.9 |
| 20260903001618 | 87 | 225 | 5.0 | 6.0 | 0.00 | 0.00 | 0.00 | 50 | 993.9 |
| 20260903001123 | 87 | 225 | 4.0 | 6.0 | 0.00 | 0.00 | 0.00 | 50 | 994.0 |
| 20260903000621 | 88 | 225 | 4.0 | 4.0 | 0.00 | 0.00 | 0.00 | 49 | 994.0 |
| 20260903000138 | 88 | 225 | 3.0 | 5.0 | 0.00 | 0.00 | 0.00 | 49 | 993.8 |
| 20260902235618 | 88 | 225 | 3.0 | 4.0 | 0.00 | 0.00 | 0.00 | 49 | 993.9 |
| 20260902235118 | 88 | 225 | 4.0 | 5.0 | 0.00 | 0.00 | 0.00 | 49 | 993.9 |
| 20260902234621 | 89 | 225 | 5.0 | 6.0 | 0.00 | 0.00 | 0.00 | 48 | 993.8 |
| 20260902234259 | 89 | 225 | 5.0 | 7.0 | 0.00 | 0.00 | 0.00 | 48 | 993.8 |
| 20260902233618 | 89 | 248 | 7.0 | 9.0 | 0.00 | 0.00 | 0.00 | 47 | 993.7 |
| 20260902233121 | 89 | 225 | 7.0 | 10.0 | 0.00 | 0.00 | 0.00 | 47 | 993.7 |
| 20260902232621 | 89 | 248 | 6.0 | 9.0 | 0.00 | 0.00 | 0.00 | 47 | 993.6 |
| 20260902232140 | 90 | 248 | 5.0 | 6.0 | 0.00 | 0.00 | 0.00 | 47 | 993.7 |
| 20260902231620 | 90 | 225 | 5.0 | 7.0 | 0.00 | 0.00 | 0.00 | 47 | 993.6 |
| 20260902231118 | 90 | 248 | 8.0 | 10.0 | 0.00 | 0.00 | 0.00 | 47 | 993.6 |
| 20260902230618 | 90 | 225 | 8.0 | 11.0 | 0.00 | 0.00 | 0.00 | 46 | 993.6 |
| 20260902230118 | 91 | 225 | 8.0 | 10.0 | 0.00 | 0.00 | 0.00 | 46 | 993.5 |
| 20260902225702 | 91 | 248 | 8.0 | 11.0 | 0.00 | 0.00 | 0.00 | 46 | 993.5 |
| 20260902225120 | 92 | 0 | 9.0 | 12.0 | 0.00 | 0.00 | 0.00 | 45 | 993.5 |
| 20260902224620 | 92 | 225 | 7.0 | 10.0 | 0.00 | 0.00 | 0.00 | 45 | 993.5 |
| 20260902224118 | 92 | 225 | 8.0 | 11.0 | 0.00 | 0.00 | 0.00 | 45 | 993.6 |
| 20260902223620 | 92 | 225 | 7.0 | 9.0 | 0.00 | 0.00 | 0.00 | 45 | 993.6 |
| 20260902223120 | 92 | 225 | 8.0 | 10.0 | 0.00 | 0.00 | 0.00 | 44 | 993.7 |
| 20260902222618 | 92 | 225 | 7.0 | 10.0 | 0.00 | 0.00 | 0.00 | 44 | 993.6 |
| 20260902222118 | 92 | 248 | 7.0 | 9.0 | 0.00 | 0.00 | 0.00 | 44 | 993.6 |
| 20260902221641 | 93 | 225 | 7.0 | 10.0 | 0.00 | 0.00 | 0.00 | 45 | 993.7 |
| 20260902221119 | 93 | 225 | 11.0 | 13.0 | 0.00 | 0.00 | 0.00 | 44 | 993.8 |
| 20260902220618 | 93 | 0 | 9.0 | 13.0 | 0.00 | 0.00 | 0.00 | 44 | 993.8 |
| 20260902220118 | 94 | 225 | 9.0 | 13.0 | 0.00 | 0.00 | 0.00 | 43 | 993.8 |
| 20260902215638 | 94 | 248 | 6.0 | 7.0 | 0.00 | 0.00 | 0.00 | 42 | 993.6 |
| 20260902215118 | 94 | 248 | 6.0 | 8.0 | 0.00 | 0.00 | 0.00 | 41 | 993.7 |
| 20260902214621 | 94 | 248 | 5.0 | 7.0 | 0.00 | 0.00 | 0.00 | 42 | 993.8 |
| 20260902214201 | 94 | 225 | 6.0 | 9.0 | 0.00 | 0.00 | 0.00 | 43 | 993.8 |
| 20260902213620 | 94 | 225 | 9.0 | 11.0 | 0.00 | 0.00 | 0.00 | 42 | 993.8 |
| 20260902213120 | 94 | 225 | 7.0 | 11.0 | 0.00 | 0.00 | 0.00 | 42 | 993.8 |
| 20260902212619 | 94 | 248 | 9.0 | 12.0 | 0.00 | 0.00 | 0.00 | 42 | 993.9 |
| 20260902212119 | 93 | 248 | 9.0 | 11.0 | 0.00 | 0.00 | 0.00 | 43 | 993.9 |
| 20260902211642 | 93 | 248 | 5.0 | 7.0 | 0.00 | 0.00 | 0.00 | 43 | 993.9 |
| 20260902211118 | 93 | 0 | 13.0 | 15.0 | 0.00 | 0.00 | 0.00 | 44 | 994.0 |
| 20260902210640 | 93 | 0 | 9.0 | 12.0 | 0.00 | 0.00 | 0.00 | 44 | 994.0 |
| 20260902210118 | 93 | 0 | 9.0 | 13.0 | 0.00 | 0.00 | 0.00 | 44 | 994.0 |
| 20260902205618 | 93 | 0 | 10.0 | 14.0 | 0.00 | 0.00 | 0.00 | 43 | 994.1 |
| 20260902205118 | 93 | 225 | 5.0 | 7.0 | 0.00 | 0.00 | 0.00 | 43 | 994.2 |
| 20260902204620 | 93 | 0 | 11.0 | 12.0 | 0.00 | 0.00 | 0.00 | 44 | 994.2 |
| 20260902204118 | 93 | 0 | 13.0 | 17.0 | 0.00 | 0.00 | 0.00 | 44 | 994.2 |
| 20260902203619 | 93 | 0 | 11.0 | 18.0 | 0.00 | 0.00 | 0.00 | 44 | 994.3 |
| 20260902203138 | 93 | 0 | 9.0 | 10.0 | 0.00 | 0.00 | 0.00 | 45 | 994.4 |
| 20260902202618 | 93 | 0 | 12.0 | 16.0 | 0.00 | 0.00 | 0.00 | 45 | 994.4 |
| 20260902202138 | 93 | 0 | 12.0 | 14.0 | 0.00 | 0.00 | 0.00 | 44 | 994.5 |
| 20260902201618 | 93 | 0 | 12.0 | 15.0 | 0.00 | 0.00 | 0.00 | 44 | 994.6 |
| 20260902201118 | 93 | 0 | 10.0 | 13.0 | 0.00 | 0.00 | 0.00 | 45 | 994.6 |
| 20260902200618 | 93 | 0 | 12.0 | 16.0 | 0.00 | 0.00 | 0.00 | 45 | 994.6 |
| 20260902200118 | 93 | 0 | 11.0 | 14.0 | 0.00 | 0.00 | 0.00 | 46 | 994.6 |
| 20260902195618 | 93 | 0 | 9.0 | 15.0 | 0.00 | 0.00 | 0.00 | 45 | 994.6 |
| 20260902195140 | 94 | 0 | 9.0 | 13.0 | 0.00 | 0.00 | 0.00 | 45 | 994.8 |
| 20260902194618 | 94 | 225 | 7.0 | 9.0 | 0.00 | 0.00 | 0.00 | 44 | 994.8 |
| 20260902194122 | 93 | 225 | 6.0 | 8.0 | 0.00 | 0.00 | 0.00 | 45 | 994.9 |
| 20260902193621 | 93 | 225 | 10.0 | 12.0 | 0.00 | 0.00 | 0.00 | 44 | 994.8 |
| 20260902193120 | 94 | 225 | 7.0 | 9.0 | 0.00 | 0.00 | 0.00 | 44 | 995.0 |
| 20260902192617 | 94 | 225 | 8.0 | 11.0 | 0.00 | 0.00 | 0.00 | 44 | 995.0 |
| 20260902192121 | 94 | 225 | 5.0 | 6.0 | 0.00 | 0.00 | 0.00 | 43 | 995.1 |
| 20260902191617 | 94 | 0 | 8.0 | 10.0 | 0.00 | 0.00 | 0.00 | 45 | 995.2 |
| 20260902191120 | 94 | 0 | 7.0 | 10.0 | 0.00 | 0.00 | 0.00 | 45 | 995.2 |
| 20260902190618 | 93 | 248 | 4.0 | 6.0 | 0.00 | 0.00 | 0.00 | 43 | 995.2 |
| 20260902190120 | 93 | 0 | 9.0 | 11.0 | 0.00 | 0.00 | 0.00 | 44 | 995.2 |
| 20260902185641 | 93 | 248 | 7.0 | 11.0 | 0.00 | 0.00 | 0.00 | 45 | 995.2 |
| 20260902185122 | 92 | 225 | 7.0 | 11.0 | 0.00 | 0.00 | 0.00 | 46 | 995.4 |
| 20260902184637 | 92 | 225 | 6.0 | 9.0 | 0.00 | 0.00 | 0.00 | 45 | 995.3 |
| 20260902184118 | 91 | 225 | 3.0 | 3.0 | 0.00 | 0.00 | 0.00 | 46 | 995.4 |
| 20260902183620 | 91 | 225 | 2.0 | 3.0 | 0.00 | 0.00 | 0.00 | 45 | 995.5 |
| 20260902183117 | 91 | 248 | 3.0 | 4.0 | 0.00 | 0.00 | 0.00 | 48 | 995.5 |
| 20260902182618 | 91 | 225 | 4.0 | 5.0 | 0.00 | 0.00 | 0.00 | 49 | 995.6 |
| 20260902182220 | 91 | 203 | 4.0 | 6.0 | 0.00 | 0.00 | 0.00 | 48 | 995.6 |
| 20260902181620 | 91 | 0 | 9.0 | 11.0 | 0.00 | 0.00 | 0.00 | 48 | 995.6 |
| 20260902181119 | 92 | 0 | 10.0 | 12.0 | 0.00 | 0.00 | 0.00 | 47 | 995.7 |
| 20260902180620 | 92 | 0 | 8.0 | 10.0 | 0.00 | 0.00 | 0.00 | 47 | 995.8 |
| 20260902180119 | 92 | 225 | 2.0 | 3.0 | 0.00 | 0.00 | 0.00 | 47 | 995.8 |
| 20260902175620 | 91 | 225 | 2.0 | 4.0 | 0.00 | 0.00 | 0.00 | 46 | 995.9 |
| 20260902175139 | 91 | 225 | 3.0 | 4.0 | 0.00 | 0.00 | 0.00 | 46 | 995.9 |
| 20260902174621 | 91 | 225 | 5.0 | 7.0 | 0.00 | 0.00 | 0.00 | 47 | 995.9 |
| 20260902174119 | 91 | 248 | 6.0 | 9.0 | 0.00 | 0.00 | 0.00 | 48 | 996.1 |
| 20260902173619 | 90 | 248 | 4.0 | 6.0 | 0.00 | 0.00 | 0.00 | 49 | 996.2 |
| 20260902173119 | 90 | 248 | 3.0 | 6.0 | 0.00 | 0.00 | 0.00 | 50 | 996.3 |
| 20260902172617 | 90 | 0 | 5.0 | 8.0 | 0.00 | 0.00 | 0.00 | 49 | 996.4 |
| 20260902172120 | 90 | 0 | 6.0 | 11.0 | 0.00 | 0.00 | 0.00 | 49 | 996.4 |
| 20260902171620 | 89 | 225 | 7.0 | 10.0 | 0.00 | 0.00 | 0.00 | 50 | 996.4 |
| 20260902171121 | 89 | 225 | 2.0 | 4.0 | 0.00 | 0.00 | 0.00 | 50 | 996.5 |
| 20260902170617 | 89 | 0 | 6.0 | 7.0 | 0.00 | 0.00 | 0.00 | 51 | 996.5 |
| 20260902170117 | 88 | 0 | 4.0 | 6.0 | 0.00 | 0.00 | 0.00 | 50 | 996.7 |
| 20260902165637 | 88 | 248 | 4.0 | 5.0 | 0.00 | 0.00 | 0.00 | 51 | 996.9 |
| 20260902165117 | 88 | 225 | 4.0 | 5.0 | 0.00 | 0.00 | 0.00 | 50 | 997.0 |
| 20260902164617 | 88 | 225 | 5.0 | 6.0 | 0.00 | 0.00 | 0.00 | 50 | 997.0 |
| 20260902164117 | 88 | 0 | 4.0 | 5.0 | 0.00 | 0.00 | 0.00 | 49 | 997.0 |
| 20260902163637 | 88 | 203 | 4.0 | 4.0 | 0.00 | 0.00 | 0.00 | 50 | 996.9 |
| 20260902163157 | 89 | 0 | 5.0 | 6.0 | 0.00 | 0.00 | 0.00 | 50 | 997.0 |
| 20260902162618 | 89 | 225 | 3.0 | 5.0 | 0.00 | 0.00 | 0.00 | 49 | 997.0 |
| 20260902162117 | 89 | 225 | 2.0 | 2.0 | 0.00 | 0.00 | 0.00 | 48 | 997.1 |
| 20260902161620 | 89 | 225 | 2.0 | 2.0 | 0.00 | 0.00 | 0.00 | 48 | 997.0 |
| 20260902161119 | 89 | 225 | 1.0 | 2.0 | 0.00 | 0.00 | 0.00 | 50 | 997.0 |
| 20260902160617 | 88 | 225 | 2.0 | 3.0 | 0.00 | 0.00 | 0.00 | 50 | 997.0 |
| 20260902160137 | 88 | 225 | 2.0 | 3.0 | 0.00 | 0.00 | 0.00 | 50 | 997.0 |
| 20260902155619 | 88 | 225 | 3.0 | 4.0 | 0.00 | 0.00 | 0.00 | 50 | 996.9 |
| 20260902155120 | 87 | 225 | 2.0 | 4.0 | 0.00 | 0.00 | 0.00 | 50 | 996.9 |
| 20260902154620 | 87 | 225 | 4.0 | 5.0 | 0.00 | 0.00 | 0.00 | 50 | 996.9 |
| 20260902154120 | 87 | 225 | 2.0 | 3.0 | 0.00 | 0.00 | 0.00 | 50 | 996.9 |
| 20260902153617 | 87 | 0 | 4.0 | 5.0 | 0.00 | 0.00 | 0.00 | 51 | 996.9 |
| 20260902153141 | 87 | 203 | 3.0 | 4.0 | 0.00 | 0.00 | 0.00 | 51 | 996.9 |
| 20260902152620 | 87 | 0 | 4.0 | 6.0 | 0.00 | 0.00 | 0.00 | 50 | 997.0 |
| 20260902152120 | 87 | 225 | 3.0 | 4.0 | 0.00 | 0.00 | 0.00 | 49 | 997.0 |
| 20260902151620 | 88 | 225 | 4.0 | 5.0 | 0.00 | 0.00 | 0.00 | 49 | 997.0 |
| 20260902151119 | 87 | 225 | 1.0 | 3.0 | 0.00 | 0.00 | 0.00 | 50 | 996.8 |
| 20260902150640 | 87 | 225 | 1.0 | 3.0 | 0.00 | 0.00 | 0.00 | 49 | 996.7 |
| 20260902150120 | 87 | 0 | 4.0 | 5.0 | 0.00 | 0.00 | 0.00 | 49 | 996.8 |
| 20260902145620 | 87 | 225 | 4.0 | 5.0 | 0.00 | 0.00 | 0.00 | 49 | 996.8 |
| 20260902145120 | 87 | 225 | 2.0 | 4.0 | 0.00 | 0.00 | 0.00 | 49 | 996.7 |
| 20260902144617 | 87 | 0.0 | 1.0 | 0.00 | 0.00 | 0.00 | 49 | 996.7 | |
| 20260902144121 | 86 | 225 | 4.0 | 5.0 | 0.00 | 0.00 | 0.00 | 49 | 996.6 |
| 20260902143620 | 86 | 225 | 2.0 | 3.0 | 0.00 | 0.00 | 0.00 | 49 | 996.6 |
| 20260902143120 | 86 | 225 | 3.0 | 5.0 | 0.00 | 0.00 | 0.00 | 48 | 996.7 |
| 20260902142620 | 86 | 225 | 2.0 | 3.0 | 0.00 | 0.00 | 0.00 | 48 | 996.6 |
| 20260902142117 | 85 | 225 | 2.0 | 3.0 | 0.00 | 0.00 | 0.00 | 48 | 996.6 |
| 20260902141620 | 85 | 225 | 1.0 | 2.0 | 0.00 | 0.00 | 0.00 | 47 | 996.6 |
| 20260902141137 | 85 | 248 | 2.0 | 4.0 | 0.00 | 0.00 | 0.00 | 47 | 996.6 |
| 20260902140617 | 85 | 225 | 4.0 | 6.0 | 0.00 | 0.00 | 0.00 | 47 | 996.5 |
| 20260902140117 | 85 | 248 | 4.0 | 6.0 | 0.00 | 0.00 | 0.00 | 46 | 996.6 |
| 20260902135619 | 84 | 225 | 5.0 | 6.0 | 0.00 | 0.00 | 0.00 | 46 | 996.6 |
| 20260902135117 | 84 | 225 | 7.0 | 8.0 | 0.00 | 0.00 | 0.00 | 46 | 996.6 |
| 20260902134620 | 84 | 225 | 6.0 | 9.0 | 0.00 | 0.00 | 0.00 | 45 | 996.6 |
| 20260902134119 | 83 | 248 | 4.0 | 5.0 | 0.00 | 0.00 | 0.00 | 45 | 996.6 |
| 20260902133619 | 83 | 0.0 | 0.0 | 0.00 | 0.00 | 0.00 | 45 | 996.7 | |
| 20260902133119 | 82 | 225 | 6.0 | 8.0 | 0.00 | 0.00 | 0.00 | 44 | 996.6 |
| 20260902132618 | 82 | 225 | 2.0 | 4.0 | 0.00 | 0.00 | 0.00 | 44 | 996.7 |
| 20260902132139 | 81 | 225 | 5.0 | 7.0 | 0.00 | 0.00 | 0.00 | 44 | 996.5 |
| 20260902131619 | 81 | 248 | 5.0 | 8.0 | 0.00 | 0.00 | 0.00 | 44 | 996.5 |
| 20260902131119 | 80 | 225 | 4.0 | 6.0 | 0.00 | 0.00 | 0.00 | 44 | 996.6 |
| 20260902130619 | 80 | 225 | 5.0 | 8.0 | 0.00 | 0.00 | 0.00 | 44 | 996.6 |
| 20260902130119 | 79 | 248 | 6.0 | 10.0 | 0.00 | 0.00 | 0.00 | 45 | 996.5 |
| 20260902125619 | 79 | 225 | 6.0 | 8.0 | 0.00 | 0.00 | 0.00 | 45 | 996.6 |
| 20260902125119 | 78 | 0 | 6.0 | 8.0 | 0.00 | 0.00 | 0.00 | 45 | 996.6 |
| 20260902124618 | 78 | 0 | 5.0 | 8.0 | 0.00 | 0.00 | 0.00 | 45 | 996.6 |
| 20260902124118 | 78 | 0 | 4.0 | 6.0 | 0.00 | 0.00 | 0.00 | 45 | 996.7 |
| 20260902123617 | 78 | 225 | 3.0 | 4.0 | 0.00 | 0.00 | 0.00 | 46 | 996.7 |
| 20260902123117 | 78 | 0 | 2.0 | 5.0 | 0.00 | 0.00 | 0.00 | 46 | 996.7 |
| 20260902122616 | 78 | 0 | 4.0 | 6.0 | 0.00 | 0.00 | 0.00 | 46 | 996.7 |
| 20260902122117 | 78 | 0 | 5.0 | 6.0 | 0.00 | 0.00 | 0.00 | 46 | 996.7 |